This is the latest recevied weather packets stored in our database for station/object WA6OOO. If no packets are shown the sender has not sent any weather packets the latest 10 day(s).
| Time | Temp. | Humidity | Pressure | Rain* | Wind** | Luminosity | Snow |
|---|---|---|---|---|---|---|---|
| 1788656005 | 24.44° C | 70% | 1015.9 hPa | 0 mm | - | 102 W/m² | - |
| 1788655704 | 24.44° C | 70% | 1016 hPa | 0 mm | - | 114 W/m² | - |
| 1788655404 | 24.44° C | 68% | 1016 hPa | 0 mm | - | 126 W/m² | - |
| 1788655099 | 24.44° C | 69% | 1016 hPa | 0 mm | - | 138 W/m² | - |
| 1788654795 | 25° C | 68% | 1015.8 hPa | 0 mm | - | 155 W/m² | - |
| 1788654490 | 25° C | 65% | 1015.9 hPa | 0 mm | - | 165 W/m² | - |
| 1788654189 | 25° C | 66% | 1015.8 hPa | 0 mm | - | 177 W/m² | - |
| 1788653885 | 25.56° C | 64% | 1015.9 hPa | 0 mm | - | 192 W/m² | - |
| 1788653580 | 25.56° C | 62% | 1015.8 hPa | 0 mm | - | 206 W/m² | - |
| 1788653276 | 25.56° C | 60% | 1015.8 hPa | 0 mm | - | 220 W/m² | - |
| 1788652975 | 25.56° C | 61% | 1016 hPa | 0 mm | - | 234 W/m² | - |
| 1788652671 | 26.67° C | 57% | 1015.9 hPa | 0 mm | - | 245 W/m² | - |
| 1788652370 | 26.67° C | 53% | 1015.8 hPa | 0 mm | - | 258 W/m² | - |
| 1788652066 | 27.22° C | 47% | 1015.8 hPa | 0 mm | - | 272 W/m² | - |
| 1788651761 | 27.22° C | 47% | 1015.8 hPa | 0 mm | - | 285 W/m² | - |
| 1788651456 | 27.78° C | 42% | 1015.8 hPa | 0 mm | - | 300 W/m² | - |
| 1788651156 | 27.78° C | 40% | 1015.7 hPa | 0 mm | - | 316 W/m² | - |
| 1788650850 | 27.78° C | 39% | 1015.8 hPa | 0 mm | - | 329 W/m² | - |
| 1788650546 | 27.78° C | 41% | 1015.9 hPa | 0 mm | - | 343 W/m² | - |
| 1788650242 | 27.78° C | 38% | 1015.9 hPa | 0 mm | - | 359 W/m² | - |
| 1788649937 | 27.78° C | 35% | 1015.8 hPa | 0 mm | - | 374 W/m² | - |
| 1788649633 | 27.78° C | 37% | 1016 hPa | 0 mm | - | 391 W/m² | - |
| 1788649331 | 28.33° C | 37% | 1016 hPa | 0 mm | - | 404 W/m² | - |
| 1788649030 | 27.78° C | 39% | 1016.2 hPa | 0 mm | - | 420 W/m² | - |
| 1788648726 | 27.78° C | 36% | 1016 hPa | 0 mm | - | 436 W/m² | - |
* Rain latest hour (hover to see other rain measurements)
** Current wind speed in m/s (hover to see current wind gust speed)